{"data":{"norad_id":64070,"intl_designator":"2025-107G","name":"STARLINK-11713 [DTC]","alt_names":[],"object_type":"PAYLOAD","status":"ACTIVE","operator":null,"country":"US","launch_date":"2025-05-21","launch_site_code":"AFETR","launch_vehicle":null,"mission":null,"orbit_class":"UNKNOWN","rcs_meters":null,"size_class":null,"mass_kg":null,"dimensions":null,"purposes":["comms"],"wikipedia_slug":null,"has_3d_model":false,"image_url":null,"decayed_at":null,"tle_current":{"epoch":"2026-09-20T08:45:42.651072Z","epoch_age_seconds":155265,"freshness":"FRESH","line1":"1 64070U 25107G   26263.36507698  .00146880  00000+0  11295-2 0  9991","line2":"2 64070  42.9995   4.9541 0001446 236.7369 123.3360 15.70809043 77910","mean_motion":15.70809043,"eccentricity":0.0001446,"inclination_deg":42.9995,"raan_deg":4.9541,"arg_perigee_deg":236.7369,"mean_anomaly_deg":123.336,"bstar":0.0011295,"rev_number":7791,"period_min":91.672505096471,"perigee_km":355.60970333074,"apogee_km":357.55738451204,"semimajor_km":6734.7205439214,"source":"CELESTRAK","updated_at":"2026-09-21T09:00:35.192763Z"}}}